| time (UTC) | temp F | wind direction | speed knots | gust knots | rain 1hr in | rain 24hr in | rain mn in | humidity % | barometer mb |
| 20260505041723 | 48 | 45 | 0.0 | 1.7 | 0.00 | 0.00 | 0.00 | 77 | 1013.5 |
| 20260505041222 | 48 | 67 | 0.0 | 0.0 | 0.00 | 0.00 | 0.00 | 77 | 1013.5 |
| 20260505040722 | 47 | 45 | 0.0 | 1.7 | 0.00 | 0.00 | 0.00 | 79 | 1013.4 |
| 20260505040222 | 46 | 22 | 0.9 | 0.9 | 0.00 | 0.00 | 0.00 | 80 | 1013.3 |
| 20260505035721 | 45 | 0 | 0.0 | 0.0 | 0.00 | 0.00 | 0.00 | 80 | 1013.3 |
| 20260505035221 | 45 | 0 | 0.0 | 0.0 | 0.00 | 0.00 | 0.00 | 80 | 1013.2 |
| 20260505034721 | 45 | 0 | 0.0 | 0.9 | 0.00 | 0.00 | 0.00 | 80 | 1013.2 |
| 20260505034221 | 45 | 337 | 0.0 | 1.7 | 0.00 | 0.00 | 0.00 | 80 | 1013.2 |
| 20260505033720 | 45 | 337 | 0.0 | 1.7 | 0.00 | 0.00 | 0.00 | 79 | 1013.2 |
| 20260505033220 | 45 | 22 | 0.0 | 0.0 | 0.00 | 0.00 | 0.00 | 79 | 1013.1 |
| 20260505032720 | 45 | 22 | 0.0 | 0.0 | 0.00 | 0.00 | 0.00 | 79 | 1013.2 |
| 20260505032220 | 45 | 22 | 0.0 | 0.0 | 0.00 | 0.00 | 0.00 | 79 | 1013.1 |
| 20260505031719 | 45 | 22 | 0.0 | 0.0 | 0.00 | 0.00 | 0.00 | 79 | 1013.1 |
| 20260505031219 | 45 | 22 | 0.0 | 0.0 | 0.00 | 0.00 | 0.00 | 79 | 1012.9 |
| 20260505030719 | 45 | 22 | 0.0 | 0.0 | 0.00 | 0.00 | 0.00 | 79 | 1012.9 |
| 20260505030218 | 45 | 22 | 0.0 | 0.0 | 0.00 | 0.00 | 0.00 | 79 | 1013.0 |
| 20260505025718 | 45 | 22 | 0.0 | 0.0 | 0.00 | 0.00 | 0.00 | 79 | 1012.9 |
| 20260505025218 | 45 | 22 | 0.0 | 0.0 | 0.00 | 0.00 | 0.00 | 78 | 1012.9 |
| 20260505024717 | 45 | 22 | 0.0 | 0.0 | 0.00 | 0.00 | 0.00 | 78 | 1013.0 |
| 20260505024217 | 46 | 22 | 0.0 | 0.0 | 0.00 | 0.00 | 0.00 | 78 | 1013.0 |
| 20260505023717 | 46 | 22 | 0.0 | 0.0 | 0.00 | 0.00 | 0.00 | 77 | 1012.9 |
| 20260505023217 | 46 | 22 | 0.0 | 0.0 | 0.00 | 0.00 | 0.00 | 78 | 1013.0 |
| 20260505022716 | 46 | 22 | 0.0 | 0.0 | 0.00 | 0.00 | 0.00 | 77 | 1013.0 |
| 20260505022216 | 46 | 22 | 0.0 | 0.0 | 0.00 | 0.00 | 0.00 | 77 | 1013.1 |
| 20260505021716 | 46 | 22 | 0.0 | 0.0 | 0.00 | 0.00 | 0.00 | 77 | 1012.9 |
| 20260505021215 | 46 | 22 | 0.0 | 0.9 | 0.00 | 0.00 | 0.00 | 76 | 1012.9 |
| 20260505020715 | 46 | 45 | 0.0 | 0.9 | 0.00 | 0.00 | 0.00 | 76 | 1012.8 |
| 20260505020215 | 47 | 45 | 0.0 | 0.0 | 0.00 | 0.00 | 0.00 | 76 | 1013.1 |
| 20260505015714 | 47 | 45 | 0.0 | 0.9 | 0.00 | 0.00 | 0.00 | 76 | 1013.0 |
| 20260505015214 | 47 | 45 | 0.0 | 0.0 | 0.00 | 0.00 | 0.00 | 76 | 1013.0 |
| 20260505014714 | 47 | 45 | 0.0 | 0.0 | 0.00 | 0.00 | 0.00 | 77 | 1013.0 |
| 20260505014214 | 47 | 45 | 0.0 | 0.9 | 0.00 | 0.00 | 0.00 | 77 | 1012.9 |
| 20260505013713 | 47 | 45 | 0.9 | 0.9 | 0.00 | 0.00 | 0.00 | 77 | 1012.8 |
| 20260505013213 | 47 | 22 | 0.0 | 0.0 | 0.00 | 0.00 | 0.00 | 76 | 1012.9 |
| 20260505012713 | 47 | 22 | 0.0 | 0.0 | 0.00 | 0.00 | 0.00 | 76 | 1012.8 |
| 20260505012212 | 47 | 22 | 0.0 | 0.0 | 0.00 | 0.00 | 0.00 | 76 | 1012.8 |
| 20260505011712 | 47 | 22 | 0.0 | 0.0 | 0.00 | 0.00 | 0.00 | 76 | 1012.8 |
| 20260505011212 | 47 | 22 | 0.0 | 0.9 | 0.00 | 0.00 | 0.00 | 77 | 1012.6 |
| 20260505010712 | 47 | 22 | 0.0 | 0.9 | 0.00 | 0.00 | 0.00 | 76 | 1012.7 |
| 20260505010211 | 47 | 22 | 0.0 | 0.0 | 0.00 | 0.00 | 0.00 | 76 | 1012.6 |
| 20260505005711 | 47 | 22 | 0.0 | 0.0 | 0.00 | 0.00 | 0.00 | 76 | 1012.7 |
| 20260505005211 | 47 | 22 | 0.0 | 0.0 | 0.00 | 0.00 | 0.00 | 76 | 1012.7 |
| 20260505004710 | 47 | 22 | 0.0 | 1.7 | 0.00 | 0.00 | 0.00 | 77 | 1012.6 |
| 20260505004210 | 47 | 22 | 1.7 | 1.7 | 0.00 | 0.00 | 0.00 | 77 | 1012.7 |
| 20260505003710 | 48 | 22 | 0.0 | 0.9 | 0.00 | 0.00 | 0.00 | 76 | 1012.6 |
| 20260505003209 | 48 | 22 | 0.0 | 0.0 | 0.00 | 0.00 | 0.00 | 76 | 1012.7 |
| 20260505002709 | 48 | 22 | 0.0 | 0.0 | 0.00 | 0.00 | 0.00 | 76 | 1012.5 |
| 20260505002209 | 48 | 22 | 0.0 | 1.7 | 0.00 | 0.00 | 0.00 | 76 | 1012.6 |
| 20260505001709 | 48 | 0 | 0.0 | 0.0 | 0.00 | 0.00 | 0.00 | 75 | 1012.5 |
| 20260505001208 | 48 | 0 | 0.0 | 0.0 | 0.00 | 0.00 | 0.00 | 75 | 1012.4 |
| 20260505000708 | 48 | 22 | 0.0 | 0.0 | 0.00 | 0.00 | 0.00 | 75 | 1012.5 |
| 20260505000208 | 48 | 22 | 0.0 | 0.0 | 0.00 | 0.00 | 0.00 | 75 | 1012.5 |
| 20260504235707 | 48 | 22 | 0.0 | 0.9 | 0.00 | 0.00 | 0.00 | 75 | 1012.5 |
| 20260504235207 | 49 | 22 | 0.0 | 0.0 | 0.00 | 0.00 | 0.00 | 74 | 1012.4 |
| 20260504234707 | 49 | 22 | 0.0 | 0.0 | 0.00 | 0.00 | 0.00 | 74 | 1012.4 |
| 20260504234207 | 49 | 22 | 0.0 | 0.0 | 0.00 | 0.00 | 0.00 | 74 | 1012.4 |
| 20260504233706 | 49 | 22 | 0.0 | 0.0 | 0.00 | 0.00 | 0.00 | 74 | 1012.4 |
| 20260504233206 | 49 | 22 | 0.0 | 1.7 | 0.00 | 0.00 | 0.00 | 74 | 1012.5 |
| 20260504232706 | 49 | 22 | 1.7 | 1.7 | 0.00 | 0.00 | 0.00 | 74 | 1012.5 |
| 20260504232205 | 49 | 112 | 0.0 | 0.9 | 0.00 | 0.00 | 0.00 | 73 | 1012.5 |
| 20260504231705 | 50 | 112 | 0.0 | 0.0 | 0.00 | 0.00 | 0.00 | 73 | 1012.4 |
| 20260504231205 | 50 | 112 | 0.0 | 0.0 | 0.00 | 0.00 | 0.00 | 72 | 1012.6 |
| 20260504230705 | 50 | 112 | 0.0 | 0.0 | 0.00 | 0.00 | 0.00 | 72 | 1012.5 |
| 20260504230204 | 50 | 112 | 0.0 | 0.0 | 0.00 | 0.00 | 0.00 | 72 | 1012.6 |
| 20260504225704 | 50 | 112 | 0.0 | 0.0 | 0.00 | 0.00 | 0.00 | 71 | 1012.6 |
| 20260504225204 | 50 | 112 | 0.0 | 0.0 | 0.00 | 0.00 | 0.00 | 71 | 1012.6 |
| 20260504224703 | 50 | 112 | 0.0 | 0.0 | 0.00 | 0.00 | 0.00 | 72 | 1012.5 |
| 20260504224203 | 51 | 112 | 0.0 | 0.9 | 0.00 | 0.00 | 0.00 | 71 | 1012.6 |
| 20260504223703 | 51 | 112 | 0.0 | 0.0 | 0.00 | 0.00 | 0.00 | 69 | 1012.5 |
| 20260504223202 | 51 | 112 | 0.0 | 0.0 | 0.00 | 0.00 | 0.00 | 69 | 1012.5 |
| 20260504222702 | 51 | 112 | 0.0 | 0.0 | 0.00 | 0.00 | 0.00 | 69 | 1012.5 |
| 20260504222202 | 52 | 112 | 0.0 | 0.0 | 0.00 | 0.00 | 0.00 | 68 | 1012.5 |
| 20260504221702 | 52 | 112 | 0.0 | 0.0 | 0.00 | 0.00 | 0.00 | 67 | 1012.5 |
| 20260504221201 | 52 | 112 | 0.0 | 0.0 | 0.00 | 0.00 | 0.00 | 67 | 1012.5 |
| 20260504220701 | 53 | 112 | 0.0 | 0.0 | 0.00 | 0.00 | 0.00 | 66 | 1012.5 |
| 20260504220201 | 53 | 112 | 0.0 | 0.0 | 0.00 | 0.00 | 0.00 | 66 | 1012.4 |
| 20260504215700 | 53 | 112 | 0.0 | 0.0 | 0.00 | 0.00 | 0.00 | 65 | 1012.5 |
| 20260504215200 | 53 | 112 | 0.0 | 0.0 | 0.00 | 0.00 | 0.00 | 65 | 1012.4 |
| 20260504214700 | 53 | 112 | 0.0 | 0.0 | 0.00 | 0.00 | 0.00 | 66 | 1012.5 |
| 20260504214200 | 53 | 112 | 0.0 | 0.9 | 0.00 | 0.00 | 0.00 | 66 | 1012.4 |
| 20260504213659 | 54 | 112 | 0.0 | 0.0 | 0.00 | 0.00 | 0.00 | 66 | 1012.4 |
| 20260504213159 | 54 | 112 | 0.0 | 0.0 | 0.00 | 0.00 | 0.00 | 65 | 1012.4 |
| 20260504212659 | 54 | 112 | 0.0 | 0.0 | 0.00 | 0.00 | 0.00 | 65 | 1012.5 |
| 20260504212158 | 54 | 112 | 0.0 | 0.0 | 0.00 | 0.00 | 0.00 | 65 | 1012.4 |
| 20260504211658 | 54 | 112 | 0.0 | 0.9 | 0.00 | 0.00 | 0.00 | 66 | 1012.4 |
| 20260504211158 | 54 | 112 | 0.9 | 0.9 | 0.00 | 0.00 | 0.00 | 65 | 1012.4 |
| 20260504210657 | 54 | 112 | 0.0 | 0.0 | 0.00 | 0.00 | 0.00 | 66 | 1012.4 |
| 20260504210157 | 54 | 112 | 0.0 | 0.0 | 0.00 | 0.00 | 0.00 | 66 | 1012.4 |
| 20260504205657 | 54 | 112 | 0.0 | 0.0 | 0.00 | 0.00 | 0.00 | 66 | 1012.4 |
| 20260504205157 | 54 | 112 | 0.0 | 0.0 | 0.00 | 0.00 | 0.00 | 67 | 1012.4 |
| 20260504204656 | 55 | 112 | 0.0 | 0.9 | 0.00 | 0.00 | 0.00 | 67 | 1012.3 |
| 20260504204156 | 55 | 112 | 0.9 | 0.9 | 0.00 | 0.00 | 0.00 | 67 | 1012.3 |
| 20260504203656 | 55 | 112 | 0.0 | 0.0 | 0.00 | 0.00 | 0.00 | 67 | 1012.3 |
| 20260504203155 | 55 | 112 | 0.0 | 0.0 | 0.00 | 0.00 | 0.00 | 68 | 1012.3 |
| 20260504202655 | 55 | 112 | 0.0 | 0.0 | 0.00 | 0.00 | 0.00 | 68 | 1012.4 |
| 20260504202155 | 55 | 112 | 0.0 | 0.0 | 0.00 | 0.00 | 0.00 | 67 | 1012.3 |
| 20260504201655 | 55 | 112 | 0.0 | 0.0 | 0.00 | 0.00 | 0.00 | 66 | 1012.3 |
| 20260504201154 | 56 | 112 | 0.0 | 0.9 | 0.00 | 0.00 | 0.00 | 65 | 1012.2 |
| 20260504200654 | 56 | 112 | 0.0 | 0.0 | 0.00 | 0.00 | 0.00 | 64 | 1012.2 |
| 20260504200154 | 56 | 112 | 0.0 | 0.0 | 0.00 | 0.00 | 0.00 | 64 | 1012.2 |
| 20260504195653 | 56 | 112 | 0.0 | 0.0 | 0.00 | 0.00 | 0.00 | 64 | 1012.2 |
| 20260504195153 | 57 | 112 | 0.0 | 0.0 | 0.00 | 0.00 | 0.00 | 63 | 1012.1 |
| 20260504194653 | 57 | 112 | 0.0 | 0.0 | 0.00 | 0.00 | 0.00 | 63 | 1012.2 |
| 20260504194152 | 57 | 112 | 0.0 | 0.0 | 0.00 | 0.00 | 0.00 | 64 | 1012.2 |
| 20260504193652 | 57 | 112 | 0.0 | 0.0 | 0.00 | 0.00 | 0.00 | 63 | 1012.1 |
| 20260504193152 | 58 | 112 | 0.0 | 0.0 | 0.00 | 0.00 | 0.00 | 63 | 1012.1 |
| 20260504192652 | 58 | 112 | 0.0 | 0.9 | 0.00 | 0.00 | 0.00 | 63 | 1012.1 |
| 20260504192151 | 58 | 112 | 0.0 | 1.7 | 0.00 | 0.00 | 0.00 | 62 | 1012.1 |
| 20260504191651 | 58 | 112 | 0.0 | 0.9 | 0.00 | 0.00 | 0.00 | 62 | 1012.1 |
| 20260504191151 | 59 | 112 | 0.0 | 0.0 | 0.00 | 0.00 | 0.00 | 61 | 1012.1 |
| 20260504190650 | 59 | 112 | 0.0 | 1.7 | 0.00 | 0.00 | 0.00 | 61 | 1012.1 |
| 20260504190150 | 59 | 112 | 0.0 | 0.0 | 0.00 | 0.00 | 0.00 | 60 | 1012.2 |
| 20260504185650 | 59 | 112 | 0.0 | 0.9 | 0.00 | 0.00 | 0.00 | 60 | 1012.2 |
| 20260504185150 | 60 | 112 | 0.0 | 0.0 | 0.00 | 0.00 | 0.00 | 59 | 1012.1 |
| 20260504184649 | 60 | 112 | 0.0 | 0.9 | 0.00 | 0.00 | 0.00 | 60 | 1012.2 |
| 20260504184149 | 60 | 112 | 0.9 | 1.7 | 0.00 | 0.00 | 0.00 | 59 | 1012.0 |
| 20260504183649 | 60 | 112 | 0.0 | 0.0 | 0.00 | 0.00 | 0.00 | 59 | 1012.1 |
| 20260504183148 | 61 | 112 | 0.0 | 0.9 | 0.00 | 0.00 | 0.00 | 59 | 1012.0 |
| 20260504182648 | 61 | 112 | 0.0 | 0.0 | 0.00 | 0.00 | 0.00 | 58 | 1011.9 |
| 20260504182148 | 61 | 112 | 0.0 | 1.7 | 0.00 | 0.00 | 0.00 | 59 | 1011.9 |
| 20260504181647 | 61 | 112 | 0.9 | 1.7 | 0.00 | 0.00 | 0.00 | 59 | 1012.0 |
| 20260504181147 | 61 | 112 | 0.0 | 2.6 | 0.00 | 0.00 | 0.00 | 58 | 1011.8 |
| 20260504180647 | 62 | 112 | 2.6 | 2.6 | 0.00 | 0.00 | 0.00 | 58 | 1011.8 |
| 20260504180147 | 62 | 90 | 0.0 | 0.0 | 0.00 | 0.00 | 0.00 | 59 | 1011.7 |
| 20260504175646 | 62 | 90 | 0.0 | 2.6 | 0.00 | 0.00 | 0.00 | 57 | 1011.6 |
| 20260504175146 | 63 | 90 | 1.7 | 1.7 | 0.00 | 0.00 | 0.00 | 57 | 1011.6 |
| 20260504174646 | 63 | 90 | 0.0 | 0.9 | 0.00 | 0.00 | 0.00 | 56 | 1011.5 |
| 20260504174147 | 63 | 90 | 0.0 | 2.6 | 0.00 | 0.00 | 0.00 | 57 | 1011.5 |
| 20260504173645 | 64 | 90 | 1.7 | 1.7 | 0.00 | 0.00 | 0.00 | 56 | 1011.5 |
| 20260504173145 | 64 | 90 | 0.0 | 1.7 | 0.00 | 0.00 | 0.00 | 55 | 1011.5 |
| 20260504172645 | 64 | 90 | 0.0 | 2.6 | 0.00 | 0.00 | 0.00 | 55 | 1011.4 |
| 20260504172145 | 65 | 90 | 0.0 | 0.9 | 0.00 | 0.00 | 0.00 | 55 | 1011.5 |
| 20260504171644 | 66 | 90 | 0.0 | 1.7 | 0.00 | 0.00 | 0.00 | 54 | 1011.4 |
| 20260504171144 | 66 | 90 | 1.7 | 2.6 | 0.00 | 0.00 | 0.00 | 53 | 1011.4 |
| 20260504170643 | 66 | 67 | 0.0 | 0.0 | 0.00 | 0.00 | 0.00 | 53 | 1011.3 |
| 20260504170143 | 66 | 67 | 0.0 | 0.9 | 0.00 | 0.00 | 0.00 | 52 | 1011.3 |
| 20260504160140 | 68 | 157 | 0.0 | 0.9 | 0.00 | 0.00 | 0.00 | 51 | 1010.9 |
| 20260504151137 | 73 | 0 | 0.0 | 0.0 | 0.00 | 0.00 | 0.00 | 50 | 1010.9 |
| 20260504150636 | 71 | 0 | 0.0 | 0.0 | 0.00 | 0.00 | 0.00 | 53 | 1010.9 |
| 20260504150136 | 68 | 0 | 0.0 | 0.0 | 0.00 | 0.00 | 0.00 | 56 | 1010.9 |
| 20260504141133 | 74 | 292 | 0.0 | 2.6 | 0.00 | 0.00 | 0.00 | 40 | 1011.4 |
| 20260504140633 | 74 | 292 | 0.0 | 1.7 | 0.00 | 0.00 | 0.00 | 41 | 1011.4 |
| 20260504140133 | 74 | 292 | 0.0 | 3.5 | 0.00 | 0.00 | 0.00 | 41 | 1011.4 |
| 20260504130630 | 76 | 292 | 1.7 | 5.2 | 0.00 | 0.00 | 0.00 | 40 | 1011.9 |
| 20260504130129 | 76 | 292 | 1.7 | 6.1 | 0.00 | 0.00 | 0.00 | 40 | 1012.0 |
| 20260504120126 | 76 | 292 | 4.3 | 12.2 | 0.00 | 0.00 | 0.00 | 40 | 1012.5 |
| 20260504110622 | 74 | 315 | 0.0 | 7.8 | 0.00 | 0.00 | 0.00 | 41 | 1013.2 |
| 20260504110122 | 73 | 292 | 2.6 | 9.6 | 0.00 | 0.00 | 0.00 | 42 | 1013.1 |
| 20260504100118 | 72 | 292 | 3.5 | 7.0 | 0.00 | 0.00 | 0.00 | 43 | 1013.7 |
| 20260504090115 | 68 | 292 | 0.9 | 12.2 | 0.00 | 0.00 | 0.00 | 45 | 1014.1 |
| 20260504081612 | 66 | 292 | 3.5 | 13.9 | 0.00 | 0.00 | 0.00 | 46 | 1014.3 |
| 20260504081112 | 66 | 0 | 0.0 | 12.2 | 0.00 | 0.00 | 0.00 | 46 | 1014.3 |
| 20260504080612 | 66 | 292 | 5.2 | 10.4 | 0.00 | 0.00 | 0.00 | 45 | 1014.3 |
| 20260504080111 | 66 | 292 | 8.7 | 14.8 | 0.00 | 0.00 | 0.00 | 46 | 1014.3 |
| 20260504070108 | 64 | 337 | 3.5 | 11.3 | 0.00 | 0.00 | 0.00 | 46 | 1014.3 |
| 20260504060104 | 64 | 292 | 0.0 | 4.3 | 0.00 | 0.00 | 0.00 | 49 | 1014.5 |
| 20260504050601 | 60 | 292 | 0.0 | 3.5 | 0.00 | 0.00 | 0.00 | 54 | 1014.6 |